Wetbulb
60.44 59.66 58.73 58.25 60.78 61.04 60.70 58.20 54.49 53.76 53.23 54.21 54.31 55.02 54.35 53.65 54.78 56.62 59.53 61.73 63.60 63.42 63.74 63.44 63.08 63.21 62.03 61.76 61.29 60.97 60.45 61.31 61.77 61.34 60.79 60.13 60.17 59.69 59.51 60.22 60.74 61.60 61.56
60.76 59.81 58.54 58.27 60.18 60.39 60.21 57.16 54.50 52.91 53.47 53.97 53.43 53.54 53.21 53.58 54.36 56.78 57.49 59.09 61.98 63.56 63.21 63.34 63.17 63.12 62.37 61.67 62.29 63.00 61.97 61.29 60.94 60.43 59.50 58.99 58.58 58.61 58.97 58.89 58.73 58.84 59.45
60.60 59.86 59.11 58.35 59.55 59.64 58.94 56.05 54.12 52.80 53.30 53.76 52.18 52.42 52.74 52.50 52.84 53.88 54.83 56.02 57.94 62.06 63.41 62.87 63.13 62.83 63.44 62.84 62.02 60.91 60.03 59.66 58.99 58.10 57.90 57.55 57.43 57.66 58.14 58.51 58.21 57.93 57.81
60.57 60.07 59.12 57.41 58.78 58.59 58.47 56.40 52.78 52.95 52.78 52.61 51.31 52.06 51.96 52.01 51.34 51.92 53.07 54.26 55.52 57.10 61.21 62.98 62.60 62.36 61.62 60.72 59.79 59.25 58.07 57.35 56.74 56.69 56.66 56.63 56.87 57.48 57.85 57.49 56.68 56.40 56.31
60.17 60.12 59.47 57.91 57.56 58.10 57.40 55.03 50.50 53.71 52.35 51.66 51.62 50.67 50.23 49.94 50.34 52.35 51.86 52.35 53.50 53.55 54.35 58.48 59.52 59.92 59.32 58.53 58.22 57.55 56.54 55.98 55.74 55.93 56.14 56.31 56.65 56.82 56.53 55.95 55.60 55.51 55.46
59.58 60.02 59.61 58.17 57.98 57.03 55.34 54.07 50.66 53.15 53.11 52.27 51.94 47.43 46.90 47.07 48.27 50.07 50.72 51.58 50.97 49.42 48.52 48.23 48.90 52.55 57.01 56.08 55.78 55.78 55.76 55.45 55.51 55.23 55.41 55.55 55.57 55.31 55.08 54.96 54.59 54.48 54.46
56.80 57.85 59.34 58.53 58.23 56.37 54.52 53.38 50.58 52.26 52.33 50.51 47.16 45.33 44.29 44.49 44.84 47.13 48.59 48.63 48.36 47.44 46.49 45.75 44.85 44.35 46.62 52.98 53.78 54.45 54.84 54.66 54.27 54.09 54.22 54.20 54.21 54.27 53.95 53.63 53.46 53.52 53.48
56.67 56.73 57.52 57.69 58.27 56.73 53.28 52.02 50.99 51.96 50.62 51.24 49.48 44.23 42.70 43.34 43.51 44.39 45.29 46.77 45.46 46.14 44.26 43.56 42.05 40.84 40.89 42.52 47.05 51.95 52.83 53.12 53.23 53.20 53.20 53.14 52.87 52.70 52.58 52.35 52.34 52.31 52.09
56.18 57.17 56.30 56.70 57.34 57.18 52.38 51.37 50.83 51.76 50.31 51.09 50.46 44.50 40.00 40.42 41.18 42.37 42.70 44.10 43.98 44.09 42.95 41.05 40.44 40.08 39.78 40.43 42.78 45.82 49.76 50.59 51.38 51.89 52.05 51.98 51.59 51.49 51.39 51.19 51.27 51.11 50.73
54.88 55.06 56.39 55.92 56.15 56.61 53.77 51.61 51.65 52.02 51.70 49.55 49.84 45.99 44.15 42.50 39.83 38.29 40.91 41.96 43.29 43.20 41.31 38.91 39.42 39.19 37.90 38.23 43.03 46.76 48.32 48.67 49.32 50.14 50.42 50.77 50.38 50.17 50.24 49.94 50.04 49.86 49.58
53.78 54.89 54.73 54.69 55.15 55.17 54.29 52.07 50.81 51.00 52.03 51.26 49.44 43.12 42.08 41.91 41.52 39.90 37.52 38.27 40.00 39.76 39.67 38.68 38.70 37.76 38.35 37.79 38.66 44.27 46.56 46.82 47.17 47.72 48.70 48.78 48.90 48.68 48.70 48.79 48.81 48.62 48.53
52.88 54.01 53.50 53.87 54.49 54.34 53.70 51.74 50.96 50.74 51.56 51.68 50.42 44.24 43.68 42.29 41.13 40.01 37.57 36.49 38.63 38.15 38.35 38.33 37.76 37.62 36.87 37.25 41.11 45.60 45.27 44.33 45.45 45.93 47.09 47.56 47.28 46.53 46.80 47.62 47.77 47.73 47.65
52.18 52.57 52.82 52.53 52.92 53.82 53.23 52.70 51.10 49.84 50.67 50.18 48.63 46.47 45.61 44.47 43.81 41.64 39.92 36.18 36.23 35.38 36.50 36.59 37.43 37.52 37.83 36.89 39.48 42.13 43.51 43.17 43.55 43.98 45.08 45.94 45.19 44.39 44.74 45.76 46.62 46.75 46.56
52.28 53.37 53.04 52.71 52.19 52.30 52.05 52.64 51.79 50.55 50.48 49.81 48.64 45.74 46.23 44.32 44.64 43.13 41.08 36.66 33.22 33.57 34.81 35.05 36.25 36.62 36.38 37.04 38.99 41.82 38.00 42.28 41.82 42.30 43.18 43.74 43.36 42.99 43.25 43.86 44.51 44.86 44.98
52.38 51.66 51.65 51.18 50.88 50.90 51.38 52.06 51.96 51.07 50.14 49.45 48.17 46.36 45.67 42.59 43.92 43.21 41.73 41.17 38.51 32.78 34.19 33.55 33.85 36.00 35.34 35.48 39.74 33.70 33.28 41.03 41.19 41.42 41.76 41.71 41.65 41.97 42.38 42.75 43.08 43.47 43.73
52.56 51.55 50.90 50.03 48.61 48.86 49.47 50.39 50.97 50.59 49.45 48.76 47.55 44.58 42.21 40.39 41.78 42.66 41.85 39.86 38.24 36.83 33.95 32.95 33.03 32.25 34.02 36.46 38.10 32.54 33.75 38.88 40.30 40.90 41.05 40.95 41.18 41.69 42.00 42.10 42.48 42.99 43.45
52.15 51.29 50.77 49.97 48.75 47.31 47.27 48.65 48.42 48.33 48.56 46.91 45.36 45.59 42.17 40.37 39.76 41.27 41.02 38.34 37.16 36.53 33.16 30.09 30.96 30.39 31.12 32.85 33.95 32.61 34.80 31.52 31.88 39.74 40.06 40.34 40.33 40.83 41.26 41.80 41.85 42.15 42.33
52.28 51.72 50.98 49.38 48.69 47.85 46.76 46.69 46.40 47.53 47.65 45.99 44.51 44.21 42.06 40.59 38.66 38.97 40.82 37.87 37.20 35.08 33.10 29.34 29.68 30.26 30.60 30.99 30.54 29.95 32.60 33.77 31.38 37.14 39.48 39.59 39.73 40.18 40.78 41.06 41.14 41.07 40.96
52.15 51.52 50.88 49.66 48.06 47.30 46.42 46.29 46.12 46.05 46.71 46.65 44.94 44.35 42.15 39.64 37.48 36.98 37.60 36.16 34.91 34.38 32.39 30.59 29.08 30.72 29.27 30.26 30.17 29.59 29.71 30.91 32.75 37.14 38.05 38.52 39.00 39.21 39.37 39.31 39.23 39.08 38.50
51.71 51.55 50.62 50.02 48.57 46.93 46.41 45.99 45.31 44.68 45.28 45.09 43.77 43.91 41.50 40.73 39.99 37.04 36.53 35.00 33.55 32.40 31.81 31.65 29.59 29.28 29.48 29.75 29.25 29.21 28.43 29.33 29.88 33.38 35.09 36.89 36.81 36.90 37.31 37.15 36.27 36.27 37.13
51.22 51.35 50.67 49.41 47.34 46.44 45.66 44.74 44.23 43.48 42.79 40.69 40.50 40.99 39.58 40.53 41.39 39.79 36.28 33.48 32.83 31.32 31.28 30.59 28.93 28.66 28.09 28.81 29.15 28.45 28.24 28.98 29.17 30.57 30.08 30.44 31.05 30.53 30.97 32.43 33.37 35.31 36.40
49.99 49.72 49.12 48.89 45.60 46.72 46.79 46.70 44.15 41.36 39.77 37.72 34.95 34.37 35.84 38.61 39.56 41.01 39.04 37.44 35.39 32.37 30.32 30.24 29.40 29.18 29.13 29.92 29.79 29.96 28.72 27.54 26.47 30.00 30.36 29.87 29.71 29.24 29.24 28.73 34.04 35.20 36.09
47.06 46.93 46.75 46.28 46.25 45.38 46.29 46.20 44.66 40.01 38.05 37.19 35.08 35.09 35.11 36.94 37.86 36.72 39.08 39.17 38.53 38.23 36.22 32.45 30.21 30.29 30.10 30.86 30.69 29.00 29.04 29.05 28.20 29.69 29.46 28.11 28.75 28.16 28.46 29.61 33.14 34.57 35.42
45.61 45.85 45.50 45.18 44.91 44.39 45.69 45.36 42.75 37.93 36.57 35.52 35.63 35.66 35.66 35.83 36.54 36.65 35.12 34.53 34.16 34.40 34.05 33.91 32.68 32.00 31.92 32.23 31.81 30.88 30.06 29.80 30.12 29.73 29.31 25.76 27.67 27.44 28.48 28.30 32.23 33.71 34.74
43.49 43.58 43.50 42.81 42.96 42.32 44.84 43.79 39.86 36.29 34.72 34.35 34.95 35.70 35.94 35.60 39.46 38.48 33.78 32.49 32.81 33.59 37.14 37.10 36.33 37.03 37.07 36.72 34.86 31.96 29.25 27.92 27.06 27.47 27.62 25.69 26.26 25.17 26.72 26.82 28.19 32.26 32.91
41.74 41.05 40.38 41.55 42.41 41.38 44.38 42.73 39.44 36.80 34.42 34.18 34.92 35.94 38.64 37.48 39.54 37.84 33.48 33.37 31.78 32.99 34.21 33.81 34.02 35.07 35.62 36.18 36.81 31.28 29.67 27.15 26.84 24.62 27.08 24.91 25.34 24.92 21.44 26.04 26.87 27.10 28.03
MSLP
1014.69 1015.28 1015.73 1016.03 1016.31 1016.86 1017.41 1018.20 1018.85 1019.32 1019.74 1020.06 1020.39 1020.57 1021.08 1021.43 1021.54 1021.62 1021.73 1021.80 1021.98 1022.15 1022.26 1022.47 1022.67 1022.88 1023.06 1023.23 1023.36 1023.47 1023.60 1023.71 1023.77 1023.83 1023.89 1023.89 1023.96 1023.93 1023.86 1023.86 1023.78 1023.66 1023.55
1013.95 1014.88 1015.57 1015.76 1016.19 1016.78 1017.50 1018.15 1018.93 1019.59 1020.07 1020.32 1020.78 1021.02 1021.36 1021.62 1021.80 1021.83 1022.10 1022.31 1022.31 1022.43 1022.60 1022.69 1022.85 1023.07 1023.25 1023.49 1023.52 1023.69 1023.91 1023.96 1024.12 1024.19 1024.29 1024.40 1024.37 1024.29 1024.20 1024.12 1024.14 1023.99 1023.96
1013.18 1014.06 1015.10 1015.49 1015.71 1016.51 1017.44 1018.18 1019.02 1019.63 1020.31 1020.71 1021.21 1021.50 1021.68 1021.94 1022.07 1022.26 1022.53 1022.64 1022.69 1022.65 1022.80 1022.95 1022.96 1023.23 1023.40 1023.52 1023.88 1024.12 1024.23 1024.36 1024.60 1024.70 1024.69 1024.71 1024.61 1024.48 1024.43 1024.48 1024.50 1024.45 1024.41
1012.80 1013.41 1014.21 1014.97 1015.42 1016.21 1017.23 1018.00 1018.95 1019.82 1020.44 1021.02 1021.59 1021.90 1022.08 1022.24 1022.52 1022.88 1023.00 1023.03 1023.17 1023.14 1023.11 1023.17 1023.25 1023.47 1023.71 1024.03 1024.21 1024.39 1024.76 1024.86 1024.97 1025.03 1025.05 1025.04 1024.92 1024.74 1024.70 1024.77 1024.88 1024.88 1024.78
1012.63 1012.92 1013.37 1014.19 1014.93 1015.70 1017.03 1017.89 1018.77 1019.47 1020.46 1021.18 1021.80 1022.28 1022.59 1022.72 1022.89 1023.10 1023.43 1023.64 1023.66 1023.67 1023.73 1023.78 1023.94 1023.98 1024.15 1024.47 1024.69 1024.83 1025.06 1025.16 1025.22 1025.29 1025.21 1025.22 1025.19 1025.18 1025.20 1025.23 1025.19 1025.11 1025.06
1012.86 1012.84 1012.80 1013.65 1014.24 1015.42 1016.60 1017.61 1018.52 1019.36 1020.04 1020.93 1021.88 1022.81 1023.18 1023.37 1023.39 1023.46 1023.71 1023.91 1024.11 1024.21 1024.26 1024.56 1024.58 1024.87 1024.92 1024.89 1025.02 1025.09 1025.24 1025.44 1025.50 1025.58 1025.57 1025.64 1025.65 1025.58 1025.55 1025.56 1025.48 1025.36 1025.30
1012.29 1013.34 1013.46 1014.17 1014.06 1014.85 1015.64 1016.64 1018.17 1018.96 1020.08 1020.71 1021.78 1023.20 1023.69 1023.94 1024.03 1024.11 1024.11 1024.27 1024.47 1024.63 1024.79 1025.14 1025.37 1025.54 1025.67 1025.53 1025.41 1025.34 1025.42 1025.59 1025.74 1025.86 1025.82 1025.90 1026.01 1026.00 1025.94 1025.88 1025.80 1025.67 1025.56
1011.88 1012.34 1013.74 1013.00 1014.67 1015.38 1015.75 1016.12 1017.17 1018.48 1019.47 1020.07 1020.82 1022.53 1023.79 1024.39 1024.39 1024.53 1024.54 1024.56 1024.83 1025.00 1025.23 1025.47 1025.72 1026.04 1026.25 1026.22 1026.03 1025.78 1025.61 1025.71 1025.91 1025.99 1026.00 1026.09 1026.22 1026.24 1026.14 1026.07 1025.93 1025.89 1025.87
1011.19 1011.75 1012.22 1012.88 1013.90 1015.31 1016.23 1015.91 1016.27 1017.11 1018.35 1019.46 1019.90 1020.68 1022.82 1023.46 1024.17 1024.70 1024.78 1024.87 1025.06 1025.25 1025.48 1025.71 1025.98 1026.15 1026.39 1026.42 1026.44 1026.38 1026.24 1026.16 1026.14 1026.14 1026.16 1026.29 1026.35 1026.46 1026.36 1026.22 1026.06 1026.02 1025.97
1011.08 1011.13 1011.47 1011.08 1013.01 1014.41 1016.20 1016.14 1016.07 1016.40 1017.19 1018.41 1019.58 1019.87 1020.26 1021.11 1022.98 1024.63 1024.89 1024.95 1025.13 1025.40 1025.56 1025.90 1026.11 1026.27 1026.50 1026.61 1026.44 1026.37 1026.31 1026.37 1026.44 1026.30 1026.28 1026.37 1026.39 1026.45 1026.52 1026.36 1026.22 1026.17 1026.10
1010.89 1010.87 1011.05 1011.32 1011.23 1012.20 1015.56 1015.62 1015.81 1016.12 1016.79 1017.45 1018.34 1019.66 1020.42 1020.90 1021.48 1022.70 1024.29 1024.90 1025.25 1025.36 1025.62 1025.86 1026.14 1026.40 1026.54 1026.65 1026.72 1026.51 1026.46 1026.43 1026.44 1026.48 1026.38 1026.41 1026.60 1026.58 1026.65 1026.52 1026.46 1026.25 1026.13
1010.64 1010.80 1010.80 1010.73 1011.46 1011.29 1013.29 1014.30 1015.19 1015.67 1016.31 1016.95 1017.70 1018.76 1019.28 1020.05 1021.04 1021.76 1023.30 1024.41 1024.92 1025.48 1025.67 1025.88 1026.14 1026.40 1026.64 1026.70 1026.62 1026.58 1026.62 1026.67 1026.57 1026.64 1026.58 1026.50 1026.77 1026.89 1026.97 1026.84 1026.66 1026.58 1026.42
1010.14 1010.27 1010.78 1011.12 1010.88 1011.32 1010.26 1013.24 1014.15 1015.13 1015.85 1016.48 1017.22 1017.87 1018.38 1018.88 1019.69 1020.93 1022.00 1023.61 1024.50 1025.36 1025.65 1025.83 1025.95 1026.26 1026.51 1026.74 1026.67 1026.69 1026.76 1026.85 1026.86 1026.78 1026.74 1026.61 1026.78 1027.07 1027.12 1027.09 1026.95 1026.85 1026.62
1009.45 1009.60 1010.12 1010.64 1010.97 1010.85 1010.25 1012.37 1013.17 1014.16 1015.24 1015.91 1016.61 1017.44 1017.90 1018.36 1018.82 1019.65 1020.91 1022.34 1024.36 1025.07 1025.28 1025.51 1025.75 1025.99 1026.28 1026.58 1026.59 1026.65 1026.83 1026.79 1026.96 1026.92 1026.94 1026.95 1027.12 1027.25 1027.24 1027.03 1026.91 1026.94 1026.83
1008.83 1009.14 1009.44 1009.78 1010.36 1010.54 1010.08 1011.47 1012.67 1013.40 1014.45 1015.25 1015.86 1016.77 1017.33 1018.01 1018.40 1019.04 1019.69 1020.47 1021.98 1024.31 1024.90 1025.09 1025.45 1025.57 1025.81 1026.25 1026.36 1026.67 1026.90 1026.82 1026.87 1026.95 1026.98 1027.11 1027.18 1027.14 1027.15 1027.00 1026.86 1026.98 1026.71
1008.21 1008.34 1009.08 1009.27 1009.65 1010.31 1010.55 1011.30 1012.18 1012.52 1013.55 1014.37 1015.22 1016.24 1016.94 1017.55 1018.20 1018.77 1019.35 1019.98 1020.72 1021.99 1023.71 1024.38 1024.86 1025.21 1025.47 1025.79 1026.14 1026.55 1026.83 1026.89 1026.94 1026.95 1026.96 1027.10 1027.10 1027.01 1027.10 1026.83 1026.90 1026.77 1026.45
1007.30 1007.64 1008.08 1008.47 1009.16 1009.72 1010.45 1010.94 1011.69 1012.15 1012.85 1013.67 1014.72 1015.43 1016.41 1017.06 1017.95 1018.55 1019.09 1019.73 1020.55 1021.14 1022.84 1024.41 1024.64 1025.06 1025.42 1025.80 1026.24 1026.51 1026.76 1027.07 1027.19 1026.90 1026.78 1026.86 1026.87 1027.06 1026.94 1026.87 1026.88 1026.71 1026.69
1006.63 1006.89 1007.38 1007.85 1008.39 1009.02 1009.79 1010.46 1011.33 1011.79 1012.30 1013.26 1014.18 1015.07 1015.90 1016.79 1017.61 1018.12 1018.68 1019.37 1019.97 1020.59 1021.70 1023.51 1024.35 1024.81 1025.30 1025.83 1026.32 1026.73 1026.89 1026.73 1027.20 1026.97 1026.75 1026.72 1026.76 1026.74 1026.79 1026.86 1026.64 1026.73 1026.74
1006.00 1006.34 1006.66 1007.09 1007.86 1008.48 1009.42 1009.80 1010.62 1011.46 1011.91 1012.39 1013.29 1014.19 1015.32 1015.97 1017.14 1017.75 1018.22 1018.96 1019.54 1020.26 1020.91 1022.05 1023.59 1024.20 1025.03 1025.71 1026.25 1026.68 1026.86 1026.76 1026.97 1026.76 1026.81 1026.74 1026.89 1026.82 1026.85 1026.75 1026.59 1026.66 1026.80
1005.37 1005.82 1006.01 1006.48 1007.16 1007.89 1008.78 1009.28 1010.16 1010.98 1011.56 1012.18 1012.78 1013.58 1014.32 1014.95 1015.83 1016.71 1017.51 1018.28 1019.16 1020.13 1020.87 1021.78 1022.84 1023.86 1024.71 1025.62 1025.74 1026.54 1026.84 1026.95 1027.09 1026.78 1026.85 1026.51 1026.90 1027.02 1027.03 1026.87 1026.77 1026.67 1026.49
1004.91 1005.09 1005.44 1006.12 1007.04 1007.95 1008.51 1009.27 1009.76 1010.40 1011.41 1012.19 1012.84 1013.17 1013.65 1014.33 1014.91 1015.51 1016.51 1017.83 1018.78 1019.88 1020.77 1021.66 1022.64 1023.63 1024.50 1025.32 1025.61 1025.93 1026.47 1026.85 1026.83 1027.03 1026.96 1026.75 1026.84 1026.98 1027.14 1027.08 1026.91 1026.53 1026.03
1004.63 1004.77 1004.80 1005.42 1006.50 1007.56 1008.25 1009.02 1009.60 1010.34 1010.83 1011.81 1012.80 1013.56 1014.07 1014.64 1015.14 1015.84 1016.55 1017.47 1018.20 1019.11 1020.46 1021.27 1022.37 1023.07 1023.81 1024.57 1024.91 1025.71 1026.10 1026.69 1026.86 1026.73 1026.92 1026.85 1026.69 1027.00 1026.95 1026.86 1026.64 1026.08 1025.71
1004.51 1004.66 1004.88 1005.41 1006.23 1007.33 1007.81 1008.44 1009.12 1009.82 1010.60 1011.80 1012.59 1013.29 1014.12 1014.66 1015.34 1016.14 1016.93 1017.69 1018.57 1019.34 1019.81 1020.36 1021.61 1022.40 1023.22 1023.80 1024.58 1025.06 1025.61 1026.02 1026.58 1026.84 1026.86 1026.72 1026.76 1026.87 1026.62 1026.50 1026.27 1025.72 1025.56
1004.93 1005.01 1005.38 1005.55 1006.08 1006.67 1007.16 1008.17 1008.98 1009.82 1010.53 1011.63 1012.40 1012.83 1013.30 1014.27 1015.03 1015.78 1016.97 1017.92 1018.95 1019.77 1020.24 1020.56 1021.37 1022.09 1022.73 1023.46 1023.96 1024.72 1025.42 1025.95 1026.47 1026.79 1026.79 1026.91 1026.81 1026.94 1026.68 1026.54 1025.89 1025.50 1025.63
1005.50 1005.46 1005.45 1005.52 1006.08 1006.46 1007.15 1008.07 1009.03 1009.82 1010.58 1011.52 1012.09 1012.52 1013.38 1014.20 1014.98 1015.82 1016.68 1018.02 1019.34 1020.24 1020.62 1021.05 1021.55 1022.17 1022.61 1023.15 1023.78 1024.50 1025.45 1026.12 1026.53 1026.87 1027.16 1027.26 1027.11 1027.20 1026.53 1026.22 1025.95 1025.71 1025.77
1005.85 1005.89 1005.83 1005.91 1006.25 1006.83 1007.12 1008.21 1008.94 1009.60 1010.40 1011.03 1012.11 1012.89 1013.38 1014.17 1015.30 1015.97 1016.68 1017.76 1019.33 1020.24 1020.69 1021.72 1021.93 1022.20 1022.91 1023.18 1023.47 1024.29 1025.03 1025.71 1026.52 1026.86 1027.09 1027.48 1027.38 1027.38 1027.16 1025.91 1025.83 1025.75 1025.64
Wind_Speed
8 6 5 4 6 4 6 6 5 5 5 6 5 7 6 5 5 3 2 9 12 12 14 13 14 14 13 12 13 13 12 12 12 12 13 13 14 12 11 13 13 15 16
9 8 6 5 7 6 5 7 6 5 4 6 6 5 6 5 5 6 4 5 7 11 13 13 14 14 14 12 13 14 14 13 13 13 11 11 10 10 10 11 12 13 13
13 13 8 7 8 7 9 7 6 5 5 4 6 5 5 5 5 6 4 4 4 7 11 12 16 13 13 14 13 11 10 12 12 9 9 9 9 9 10 12 12 13 14
14 13 11 7 9 7 7 7 7 6 6 6 4 4 4 4 6 6 4 4 4 3 5 12 12 13 12 11 9 10 9 9 9 9 9 8 9 9 11 13 12 12 12
12 13 12 10 11 9 8 8 5 9 7 6 6 4 4 4 5 4 6 5 5 4 4 14 13 13 12 10 10 10 9 9 9 8 9 9 10 10 11 11 11 11 12
4 8 10 12 13 10 9 9 11 7 9 9 7 6 4 4 3 4 5 4 5 5 5 6 5 6 9 9 9 9 9 9 9 9 9 10 10 10 10 11 11 11 11
10 4 4 7 12 13 13 14 9 12 8 9 8 5 4 4 4 3 2 3 4 4 6 5 4 4 4 9 8 8 8 8 8 8 9 9 9 10 10 10 10 11 12
11 11 2 6 8 8 12 15 14 10 5 10 8 4 3 2 2 2 2 3 5 3 5 5 6 5 4 3 5 8 8 7 7 7 7 8 8 8 9 9 9 10 11
11 13 14 6 7 7 8 13 15 14 10 10 15 6 4 5 4 0 2 2 4 3 4 5 5 5 4 4 5 6 8 6 6 6 6 6 7 8 8 8 9 9 9
8 9 13 17 12 7 9 11 11 12 12 14 11 1 2 6 5 3 1 2 4 4 5 3 4 4 5 3 5 6 6 5 5 5 5 5 5 6 7 7 8 8 9
8 9 11 13 17 14 11 13 13 12 11 13 12 4 3 3 3 5 4 3 1 2 3 4 4 4 4 4 3 4 6 5 4 3 4 3 4 5 6 7 8 8 8
7 10 10 13 12 17 14 12 12 13 12 12 11 5 5 5 4 4 4 3 4 1 2 3 4 4 4 4 4 6 6 4 3 3 4 3 3 4 6 8 8 9 9
7 10 11 11 12 13 19 14 14 11 13 12 13 9 5 4 5 4 4 3 4 2 2 2 3 4 4 3 3 5 5 4 3 2 3 2 3 3 5 8 9 9 10
8 11 13 12 13 15 15 15 13 12 13 12 14 8 7 5 5 5 6 6 3 1 2 3 2 4 4 4 5 7 3 4 1 1 2 2 3 3 5 6 8 8 9
7 7 9 12 12 12 14 16 13 15 13 12 12 11 8 4 4 5 4 6 7 5 7 4 4 4 5 5 6 5 4 2 2 1 1 1 2 3 5 5 6 7 8
10 11 11 10 9 9 12 15 12 13 14 11 9 11 6 4 5 4 6 5 4 5 4 3 3 4 5 4 7 5 4 4 3 2 2 1 3 4 5 6 6 9 10
13 12 13 12 11 10 9 10 10 13 14 11 9 13 10 8 6 5 4 4 4 4 5 1 2 2 3 6 4 4 4 3 0 1 1 0 2 5 6 6 7 10 13
13 15 14 13 12 12 11 12 10 11 13 13 12 11 10 7 7 6 6 7 6 5 5 5 3 3 3 3 4 3 2 3 2 2 1 2 3 4 5 6 9 11 12
12 12 13 14 12 12 12 11 12 12 12 13 14 13 12 12 9 6 6 7 5 4 3 5 4 2 3 3 3 2 2 2 3 2 2 2 1 3 6 7 9 10 12
10 13 13 13 10 9 10 10 11 10 10 11 12 13 13 15 14 12 9 9 7 6 5 6 4 4 3 2 3 3 2 1 2 0 0 4 3 5 6 7 8 8 10
11 12 12 10 9 9 7 9 10 10 10 7 6 7 9 11 15 15 10 9 10 6 6 6 4 4 3 3 4 3 3 2 2 2 0 1 1 2 2 5 6 11 12
7 8 10 11 10 7 14 16 12 10 10 10 8 6 6 10 12 15 14 15 12 12 7 6 3 6 4 4 3 4 4 3 1 1 1 2 1 2 2 2 11 12 9
4 7 8 10 12 9 17 17 15 8 10 9 11 11 9 8 13 12 17 18 14 10 8 6 8 4 5 6 6 4 4 3 2 1 1 2 1 3 2 4 12 9 6
4 6 8 9 9 9 18 19 20 11 10 10 10 11 13 14 14 16 14 12 9 7 6 5 6 5 4 8 6 4 4 3 2 1 1 2 1 2 4 4 8 7 7
2 2 3 6 8 7 18 21 15 9 10 10 10 11 12 12 22 25 16 15 11 8 11 14 14 13 14 14 10 5 3 2 1 1 1 0 1 2 4 2 2 8 16
1 2 3 4 6 7 18 22 14 8 10 9 9 10 20 18 25 23 15 15 13 9 10 8 7 9 7 8 12 4 5 3 1 1 2 0 1 1 3 2 2 3 4
Wind_Direction
166 165 167 179 180 127 132 129 119 120 114 113 113 122 119 119 112 80 99 117 128 126 131 129 124 120 117 115 110 108 101 100 81 74 63 60 48 46 48 43 39 37 38
164 172 174 179 178 151 135 135 134 131 124 128 113 114 122 116 112 93 72 62 55 139 137 133 124 124 128 131 119 101 97 87 77 73 69 58 58 55 48 49 38 28 30
170 170 176 189 171 153 126 128 121 113 115 105 109 107 109 111 105 92 85 71 47 136 138 126 130 132 110 102 94 90 83 78 67 69 70 67 62 60 54 45 42 32 31
181 176 173 179 167 148 140 149 140 137 131 132 122 114 101 101 98 97 77 74 57 50 78 131 128 125 107 96 99 93 92 86 82 73 68 63 58 57 53 44 31 27 29
194 184 178 174 159 155 154 156 136 149 144 129 127 97 79 101 116 109 97 86 73 55 74 73 74 77 96 107 103 101 94 86 81 76 73 65 56 52 50 47 38 31 26
206 215 187 176 163 160 151 153 152 155 152 142 119 81 58 49 70 102 117 107 95 80 77 69 63 60 80 99 100 98 94 87 77 72 66 57 50 50 46 40 34 29 25
135 66 206 189 180 167 165 158 151 148 145 134 114 80 51 48 54 58 87 113 99 88 86 82 71 67 59 85 96 93 93 88 82 73 69 64 52 43 39 33 28 26 25
153 137 122 168 200 175 162 158 156 156 132 169 148 113 132 37 15 70 84 131 128 119 110 107 104 97 84 64 80 84 89 85 83 83 78 69 55 43 37 29 26 23 20
176 173 150 125 182 183 184 171 164 167 162 180 164 136 144 188 127 57 197 170 154 142 136 132 126 126 120 96 77 68 80 77 78 74 73 70 57 37 29 24 19 17 16
199 185 181 157 156 173 196 187 176 172 164 172 180 116 104 139 158 150 230 195 182 183 167 166 153 146 135 131 132 129 103 94 76 65 60 64 58 38 20 16 11 9 6
203 203 182 168 163 156 202 186 182 177 175 173 182 144 113 82 102 135 161 165 85 184 174 168 160 155 157 145 128 134 120 108 85 50 35 39 48 34 13 8 0 2 0
200 203 202 180 188 167 174 181 182 182 180 182 180 154 162 159 162 139 118 123 150 181 159 171 169 171 167 164 171 136 122 102 87 36 4 14 45 23 3 354 355 354 352
200 195 188 203 187 195 159 184 177 179 181 180 179 177 160 153 132 126 111 123 144 171 170 200 184 167 174 181 166 129 118 101 82 23 340 8 54 20 359 350 351 349 349
203 190 190 195 201 186 160 183 180 177 182 182 180 172 174 161 146 146 141 140 103 135 166 169 171 178 173 177 180 145 130 130 94 18 11 33 32 358 345 349 350 343 343
197 179 183 184 188 192 172 179 187 182 182 182 177 176 171 167 153 147 142 151 142 165 205 194 166 184 167 172 176 150 153 186 145 133 76 38 5 339 328 338 338 325 325
193 183 189 174 164 181 178 176 187 173 175 177 169 169 159 155 159 153 158 154 136 138 148 153 192 156 167 158 167 154 168 142 150 130 91 30 354 344 321 321 331 329 318
193 192 192 182 175 166 173 177 178 170 174 168 166 177 174 156 167 161 148 136 140 134 120 162 106 167 133 148 145 144 138 142 177 140 73 60 3 322 323 327 330 328 318
201 199 190 177 176 169 173 167 170 174 173 172 172 172 175 165 166 163 164 174 168 160 131 144 146 136 130 139 141 136 170 147 188 241 309 354 325 319 322 324 321 318 319
202 195 188 178 174 170 172 174 174 177 181 183 177 179 179 167 172 169 170 170 159 147 135 138 139 133 116 138 124 118 168 162 217 217 37 37 340 344 321 320 326 328 317
202 200 187 176 170 162 182 173 173 176 182 182 179 183 177 180 182 177 175 173 151 142 127 131 103 115 116 132 112 151 166 119 211 232 340 133 12 340 330 336 338 329 319
202 202 188 164 150 167 172 171 172 171 172 161 171 178 177 184 181 175 160 159 145 130 135 132 116 117 129 140 175 161 153 157 229 220 240 236 326 339 322 340 315 316 321
199 193 177 173 158 175 171 177 167 164 154 151 144 122 123 128 138 149 142 143 150 147 146 131 136 150 146 152 129 163 143 156 226 182 181 270 65 295 293 293 305 318 316
169 169 170 163 177 180 169 173 167 155 148 158 152 142 137 137 130 131 132 123 123 126 130 125 141 148 142 167 149 140 153 141 179 183 100 280 105 289 277 290 314 320 315
192 178 182 177 171 172 171 170 163 154 145 151 154 153 144 144 144 134 123 111 102 97 98 99 117 134 127 145 124 131 138 123 102 122 131 247 83 276 297 300 337 349 328
209 202 172 154 162 156 167 164 151 139 136 140 143 140 140 138 145 139 126 119 113 106 107 110 118 130 131 131 128 114 114 117 222 143 50 109 39 310 296 321 325 347 339
264 153 137 137 160 154 167 167 153 139 133 126 118 131 144 143 148 139 131 131 129 141 134 124 123 101 104 139 141 123 146 135 142 317 163 295 329 33 314 284 263 316 295